Regional Weather Roundup
Issued by NWS

Home | Current Version | Previous Version | Graphics & Text | Print | Product List | Glossary On
Versions: 1 2 3 4 5 6 7 8 9 10 11 12 13 14 15 16 17 18 19 20 21 22 23 24 25 26 27 28 29 30 31 32 33 34 35 36 37 38 39 40 41 42 43 44 45 46 47 48 49 50
000
ASUS43 KLMK 250802
RWRKY
KENTUCKY REGIONAL WEATHER ROUNDUP
NATIONAL WEATHER SERVICE LOUISVILLE KY
400 AM EDT SUN SEP 25 2016

NOTE "FAIR" INDICATES FEW OR NO CLOUDS BELOW 12,000 FEET
WITH NO SIGNIFICANT WEATHER AND/OR OBSTRUCTIONS TO VISIBILITY.

KYZ001>023-026-027-061>063-070>075-250900-
WESTERN AND SOUTH CENTRAL KENTUCKY

CITY           SKY/WX    TMP DP  RH WIND       PRES   REMARKS
PADUCAH        CLEAR     68  67  96 CALM      30.05F FOG
HENDERSON      CLEAR     64  61  88 CALM      30.06F
OWENSBORO      NOT AVBL
HOPKINSVILLE   CLEAR     68  65  91 CALM      30.07S
BOWLING GREEN  PTCLDY    68  66  93 CALM      30.08F FOG
GLASGOW        CLEAR    N/A N/A N/A CALM      30.09S FOG
$$

KYZ024-025-028>034-038-045-046-053-250900-
NORTH CENTRAL KENTUCKY

CITY           SKY/WX    TMP DP  RH WIND       PRES   REMARKS
LOUISVILLE/SDF CLEAR     73  67  81 N3        30.09F
LOUISVILLE/LOU CLEAR     72  66  81 N3        30.11S
FORT KNOX      CLEAR     70  67  90 N6        30.09S
$$

KYZ035>037-039>044-047>052-055>060-089>105-250900-
NORTHEAST KENTUCKY

CITY           SKY/WX    TMP DP  RH WIND       PRES   REMARKS
LEXINGTON      CLEAR     69  63  81 NE6       30.12S
COVINGTON      CLEAR     68  63  84 NE8       30.13F
FRANKFORT      CLEAR     68  63  84 CALM      30.11S
$$

KYZ054-064>069-076>088-106>120-250900-
SOUTHEAST KENTUCKY

CITY           SKY/WX    TMP DP  RH WIND       PRES   REMARKS
JACKSON        CLEAR     68  63  84 CALM      30.13S
LONDON         CLEAR     65  62  90 CALM      30.11F FOG
SOMERSET       PTCLDY    63  63 100 CALM      30.11S
MIDDLESBORO    PTCLDY    62  62 100 CALM      30.13F
MONTICELLO     MOSUNNY   61  61 100 N8        30.12S FOG
$$





USA.gov is the U.S. government's official web portal to all federal, state and local government web resources and services.